Temperature
21 20 20 20 21 21 21 21 20 20 20 20 20 20 20 20 20 19 20 19 19 19 19 19 19 19 19 19 19 19 19 19 19 19 18 18 18 18 18 17 18 17 17
22 21 20 21 21 21 21 21 21 21 20 20 20 20 20 20 20 20 20 20 20 20 19 19 19 19 19 19 19 19 19 19 19 19 18 18 18 18 18 18 18 18 17
22 21 21 21 21 21 21 21 21 21 21 20 20 20 20 20 20 20 20 20 20 20 20 20 20 20 20 20 20 20 19 19 19 19 18 18 18 18 18 18 18 18 17
22 21 21 21 21 21 21 21 21 21 21 21 20 20 20 20 20 20 20 20 20 20 20 20 20 20 20 20 20 20 19 19 19 19 18 18 18 18 18 18 18 18 18
22 21 21 21 21 21 21 21 21 21 21 21 20 20 20 20 20 20 20 20 20 20 20 20 20 20 20 20 20 19 19 19 19 18 18 18 18 18 18 18 18 18 18
22 21 21 21 21 21 21 21 21 21 21 21 20 20 20 20 20 20 20 20 20 20 20 20 20 20 20 19 19 19 19 19 18 18 18 18 18 18 18 18 18 18 18
22 21 21 21 21 21 21 21 21 21 21 21 20 20 20 20 20 20 20 20 20 20 20 20 20 19 19 19 19 19 19 18 18 18 18 18 18 17 17 17 17 17 18
22 21 21 21 21 21 21 21 21 21 21 21 21 20 20 20 20 20 20 20 20 20 19 19 19 19 19 19 19 19 18 18 18 18 18 18 18 17 17 17 17 17 17
22 22 21 21 21 21 21 21 21 21 21 21 20 20 20 20 20 20 20 19 19 19 19 19 19 19 19 19 19 18 18 18 18 18 18 18 18 17 17 17 17 17 17
22 21 21 21 21 21 21 21 21 21 21 20 20 20 20 20 20 19 19 19 19 19 19 19 19 19 18 18 18 18 18 18 18 18 18 18 18 17 17 17 17 17 17
21 21 21 21 21 21 21 21 21 20 20 20 20 20 20 20 19 19 19 19 19 19 18 18 18 18 18 18 18 18 18 18 18 18 18 18 18 17 17 17 17 17 17
22 21 21 21 21 21 20 20 20 20 20 20 20 20 19 19 19 19 19 19 18 18 18 18 18 18 18 18 18 18 18 18 18 18 18 18 18 18 17 17 17 17 17
22 22 21 21 21 20 20 20 20 20 20 20 20 19 19 19 19 19 19 18 18 18 18 18 18 18 18 18 18 18 18 18 18 18 18 18 18 17 17 17 17 17 17
22 21 21 21 20 20 20 20 20 20 20 20 19 19 19 19 19 18 18 18 18 18 18 18 18 18 18 18 18 18 18 18 18 18 18 18 18 17 17 18 18 18 17
21 21 21 20 20 20 20 20 20 20 20 20 19 19 19 19 19 18 18 18 18 18 18 18 18 18 18 18 18 18 18 18 18 18 18 18 18 18 17 18 18 18 18
21 20 20 20 20 20 20 20 19 19 19 19 19 19 18 18 18 18 18 18 18 18 18 17 17 17 17 17 17 18 18 18 18 18 18 18 18 18 18 18 18 18 18
20 20 20 20 20 19 19 19 19 19 19 19 19 19 18 18 18 18 18 18 18 18 17 17 17 17 17 17 17 17 17 17 17 17 17 18 18 18 18 18 17 17 18
20 19 19 19 19 19 19 19 18 18 18 18 18 18 18 18 18 18 18 18 17 17 17 17 17 17 17 17 17 17 17 17 17 17 17 17 17 17 18 18 17 17 18
19 19 19 19 19 19 19 18 18 17 17 17 18 18 17 17 17 18 18 18 17 17 17 17 17 17 17 17 17 17 17 17 17 17 17 17 17 17 17 17 17 17 17
19 19 19 18 19 18 18 18 17 17 17 17 17 17 17 17 17 17 18 17 17 17 17 17 17 17 17 17 17 17 17 17 17 17 17 17 17 17 17 17 17 17 17
18 18 18 17 18 17 17 17 16 16 16 16 17 17 17 17 17 17 18 18 18 18 17 17 17 17 17 17 17 17 17 17 17 17 17 17 17 17 17 17 17 17 17
18 17 17 17 17 17 16 16 16 16 16 16 16 17 17 17 17 17 18 18 18 18 17 17 17 17 17 16 16 17 17 16 16 16 16 16 16 16 16 17 17 17 17
17 17 17 17 16 16 16 16 16 16 16 16 16 17 17 17 17 17 17 18 18 18 17 17 17 17 16 16 16 16 16 16 16 16 16 16 16 16 16 16 17 17 17
17 16 16 16 16 16 16 16 16 16 16 16 16 16 17 17 17 17 17 17 17 17 17 17 17 16 16 16 16 16 15 15 15 15 16 16 16 16 16 16 16 17 17
16 16 16 16 16 16 16 16 15 15 15 15 15 16 16 16 16 16 16 16 16 16 16 16 16 16 16 16 16 15 15 15 14 14 15 16 16 16 16 16 16 16 16
16 16 16 16 16 16 16 15 15 15 15 15 15 15 15 15 15 15 15 16 16 16 16 16 15 15 15 16 15 15 15 15 14 14 14 14 15 16 16 16 16 16 16
Wind_Speed
10 13 22 21 20 19 19 18 18 18 18 18 18 18 18 18 17 16 15 14 13 11 10 10 10 10 11 11 12 13 14 14 14 14 14 14 14 14 14 15 14 14 16
15 18 23 22 21 20 19 18 18 18 17 17 17 17 17 17 16 16 15 14 12 11 10 10 10 10 10 11 11 12 12 13 13 13 13 13 13 13 13 13 13 12 15
16 17 22 22 21 20 19 18 18 17 17 17 16 16 16 16 15 15 14 13 12 11 10 10 10 10 9 10 10 11 11 11 12 12 12 9 10 12 12 13 13 14 14
16 16 19 23 22 20 19 18 17 17 16 16 16 15 15 15 14 14 13 12 12 11 10 10 9 9 9 9 9 9 10 10 10 10 7 7 7 11 12 13 13 13 13
13 14 19 24 22 21 19 18 17 16 16 15 15 15 14 14 13 13 12 12 11 11 10 10 9 9 9 9 9 8 8 8 9 7 6 5 4 9 12 13 13 14 14
13 13 19 24 22 21 20 18 17 16 16 15 15 14 14 13 13 12 12 11 11 10 10 10 9 9 9 8 8 8 8 8 7 5 5 4 5 8 11 12 13 14 14
13 12 17 23 22 21 20 19 18 17 16 15 15 14 14 13 13 12 12 11 11 10 10 10 9 9 9 9 9 8 8 8 6 4 4 5 7 9 12 13 14 14 15
15 11 15 22 22 21 20 19 18 17 17 16 15 15 14 14 13 13 12 12 12 11 11 11 10 10 10 10 9 9 9 9 7 6 6 6 8 10 13 15 16 16 16
13 10 10 16 19 21 20 19 18 17 17 16 16 15 15 14 14 13 13 12 12 12 12 12 12 11 11 11 11 11 10 10 8 6 7 7 8 10 13 16 17 17 18
12 10 8 10 13 14 16 18 18 18 17 17 16 16 15 15 14 14 14 13 13 13 13 14 14 13 13 13 13 13 12 12 10 9 8 8 10 11 12 15 18 19 19
13 10 8 7 8 10 12 15 17 17 17 17 16 16 15 13 12 12 14 14 15 15 16 16 16 15 15 15 15 15 14 11 10 10 10 11 13 13 13 15 17 20 21
15 14 10 8 7 7 10 10 10 11 11 12 11 12 11 10 11 12 12 15 16 16 16 17 17 16 16 13 14 15 12 12 11 10 11 14 15 15 15 15 16 18 20
11 12 10 9 7 6 5 4 5 6 7 9 10 11 10 9 9 11 9 11 13 14 13 13 13 12 12 12 11 11 12 12 11 11 13 16 17 17 16 15 15 17 20
7 8 7 8 7 6 5 3 3 4 5 6 9 11 9 6 6 7 7 9 9 9 8 8 7 9 10 11 11 10 11 10 11 12 13 16 17 16 16 15 14 15 16
6 6 6 6 6 5 4 3 4 4 5 7 8 10 12 7 7 7 6 7 7 7 6 5 5 5 6 7 8 9 9 11 11 11 11 15 15 15 15 15 14 14 15
7 7 6 6 6 4 4 4 3 3 5 6 7 10 12 11 7 7 6 5 5 6 6 5 4 4 4 4 6 6 7 9 9 10 11 12 14 14 15 15 14 14 14
6 6 6 6 5 4 3 3 3 4 5 4 6 8 10 11 10 7 6 5 4 5 4 3 2 2 2 3 4 5 5 7 8 9 10 10 11 12 14 15 15 15 14
5 5 4 3 4 4 4 4 3 4 4 5 6 6 10 13 12 6 6 5 4 3 2 2 2 2 2 3 3 4 4 5 7 8 8 9 10 10 12 15 16 16 16
4 5 4 2 3 3 3 3 4 4 4 4 4 4 7 10 10 6 5 4 4 3 2 2 2 2 2 3 4 4 4 5 6 6 7 8 9 10 11 13 16 16 17
6 5 3 1 1 1 1 1 1 2 2 2 3 4 6 7 7 5 4 5 5 4 3 2 2 2 2 2 3 3 3 4 4 5 6 5 7 9 10 11 11 13 15
7 6 6 4 3 2 1 1 0 2 2 2 3 5 7 7 6 5 5 5 5 4 4 4 2 2 1 0 0 2 3 2 2 2 3 3 4 5 6 8 9 10 10
7 7 7 6 6 5 2 1 1 1 1 2 2 3 5 5 5 5 6 6 5 4 4 4 3 2 1 1 1 0 2 3 2 1 2 1 2 3 4 6 7 8 10
8 7 6 6 6 6 5 2 1 1 1 1 2 2 3 4 4 3 5 5 5 5 5 5 4 4 2 1 1 2 2 2 2 3 2 2 2 2 3 4 5 7 8
5 5 5 5 5 5 5 4 4 2 2 2 3 2 3 2 1 2 3 4 5 4 5 5 5 3 4 2 1 2 2 2 1 2 3 3 3 4 5 5 5 6 7
3 4 3 4 5 5 6 5 5 4 2 2 3 4 3 3 3 3 2 2 3 4 5 5 5 5 4 4 3 2 1 1 2 2 4 4 4 4 4 6 5 5 6
3 2 2 4 4 4 5 5 5 4 3 3 4 4 3 3 3 4 3 2 2 2 4 5 5 6 6 5 4 3 3 3 3 4 4 4 5 4 5 5 4 4 4
Wind_Direction
166 164 167 161 155 151 148 144 141 138 138 138 139 142 146 150 152 153 154 154 153 151 147 141 136 131 127 126 125 125 126 127 127 127 128 128 128 126 123 120 119 121 123
155 161 166 162 156 153 150 147 145 143 143 143 144 146 149 152 155 156 157 157 156 154 150 147 143 139 136 133 132 132 132 134 135 136 134 134 136 134 132 128 127 129 128
149 159 164 162 158 155 152 150 149 148 148 148 149 151 153 155 158 159 160 161 161 159 156 153 150 147 145 142 141 140 140 142 144 143 137 135 142 144 142 141 140 137 136
148 157 162 163 160 157 155 153 153 154 155 155 155 157 158 160 162 164 165 166 166 164 162 162 160 157 154 153 152 151 151 152 152 147 135 141 149 156 155 152 150 147 145
147 155 165 164 162 160 158 158 159 161 162 162 163 164 166 168 170 171 172 173 173 173 173 173 172 169 166 166 165 165 165 164 163 153 148 158 157 165 165 163 162 160 156
148 155 168 166 165 164 163 163 165 168 169 171 172 173 175 177 178 179 180 182 183 184 184 184 184 182 180 180 181 181 182 184 179 160 165 181 190 186 180 176 174 171 168
153 158 171 168 168 168 168 169 172 174 177 180 182 183 185 186 188 189 190 192 194 195 196 197 197 196 196 195 195 197 199 204 193 188 201 211 213 209 201 194 188 184 179
158 160 171 171 172 172 173 175 178 181 184 188 190 192 193 195 197 199 200 202 204 206 208 209 210 210 211 210 210 210 213 218 219 215 223 228 227 221 215 208 200 195 190
159 159 168 173 175 177 179 181 185 188 191 195 198 200 201 203 206 209 211 214 217 218 220 222 222 222 222 223 223 223 224 227 226 221 232 231 233 229 224 218 211 204 199
163 167 168 169 173 176 182 188 191 195 198 202 205 207 210 212 215 219 221 225 228 231 231 232 232 232 231 231 232 233 234 236 234 229 231 235 241 241 236 228 219 212 207
174 177 171 167 168 173 181 194 198 203 206 208 212 216 217 219 224 228 231 233 237 239 240 240 239 238 237 236 236 237 238 235 233 234 232 236 239 243 242 238 229 220 214
182 184 182 176 171 172 189 199 204 209 212 213 216 223 223 220 225 233 239 243 245 247 249 247 245 243 242 238 239 241 237 234 234 237 239 240 240 239 240 240 234 225 220
179 183 187 185 177 181 192 197 205 213 216 220 221 223 227 227 230 237 238 248 253 256 254 250 248 239 234 232 234 236 236 236 236 237 241 243 241 240 238 238 238 233 227
162 178 179 183 186 191 195 210 209 213 220 225 228 226 225 229 229 232 236 239 242 246 246 242 237 237 235 235 235 237 238 237 238 237 240 245 246 246 242 240 237 235 234
152 168 170 171 185 197 201 219 220 221 226 233 235 233 229 228 234 231 234 237 239 239 237 234 228 230 232 234 237 239 239 239 241 240 244 248 248 248 246 241 236 235 234
158 166 161 162 171 189 208 221 242 247 241 238 238 243 238 235 235 233 231 230 232 230 229 225 220 223 231 233 239 240 243 245 244 245 247 254 256 251 246 240 238 239 235
153 157 155 167 160 168 198 222 241 257 249 237 237 247 250 245 238 228 228 225 224 223 217 219 225 218 229 235 246 250 249 247 246 246 247 249 253 252 246 237 238 239 238
133 135 149 167 159 171 196 210 232 244 240 240 232 238 247 244 237 217 212 216 208 197 188 193 203 203 224 233 248 255 250 249 250 250 249 250 249 248 244 240 239 237 237
109 119 128 151 170 189 212 213 203 225 236 239 234 226 239 241 231 208 200 201 184 171 181 196 189 193 209 233 249 253 253 254 257 260 254 251 247 245 244 244 243 241 237
68 70 65 56 68 129 191 236 209 213 235 249 234 222 226 233 223 199 193 191 176 169 175 181 184 188 207 235 264 272 274 274 268 258 257 256 252 250 247 246 246 247 243
42 41 40 11 5 20 11 346 334 249 250 252 242 228 222 218 210 194 193 190 185 180 181 181 167 165 195 191 339 322 319 303 285 260 267 260 262 261 257 252 247 244 245
35 30 38 22 16 11 354 13 259 258 257 247 246 234 227 218 213 207 197 194 186 175 171 175 159 154 178 156 143 61 341 343 345 348 324 285 285 284 279 273 260 251 248
39 32 34 34 27 15 5 15 352 6 344 297 276 263 257 239 224 213 207 200 187 176 184 187 171 165 177 197 185 163 166 242 308 321 328 329 323 303 295 291 276 264 254
38 47 46 41 41 29 27 39 43 34 359 324 315 322 323 323 301 262 225 208 200 192 191 192 180 172 165 187 203 213 204 179 202 311 313 314 315 298 296 296 288 276 261
34 53 56 58 51 43 50 54 58 51 27 351 3 4 358 358 9 4 329 250 218 210 206 200 185 184 181 182 186 185 199 217 212 229 280 307 317 296 291 291 287 280 270
9 26 41 62 54 47 62 66 74 71 49 39 24 12 1 354 3 7 352 326 263 228 221 216 208 199 198 195 197 195 192 198 201 210 247 284 300 298 299 293 287 287 283
Height
1496 1500 1504 1508 1511 1514 1517 1519 1521 1524 1526 1527 1529 1531 1532 1533 1535 1536 1537 1538 1539 1540 1541 1542 1543 1544 1545 1545 1546 1546 1547 1548 1548 1549 1550 1550 1551 1552 1553 1554 1555 1556 1557
1493 1499 1504 1508 1511 1514 1517 1520 1522 1524 1527 1528 1530 1532 1533 1534 1536 1537 1538 1539 1540 1541 1542 1543 1544 1545 1546 1546 1547 1548 1548 1549 1550 1550 1551 1552 1553 1554 1555 1556 1557 1558 1559
1494 1499 1503 1508 1512 1515 1518 1520 1523 1525 1527 1529 1531 1532 1534 1535 1537 1538 1539 1540 1541 1542 1543 1544 1545 1546 1547 1548 1548 1549 1550 1550 1551 1552 1553 1554 1555 1556 1557 1558 1559 1560 1561
1495 1499 1504 1508 1512 1516 1518 1521 1523 1525 1528 1530 1531 1533 1535 1536 1538 1539 1540 1541 1542 1543 1544 1545 1546 1547 1548 1549 1549 1550 1551 1552 1552 1553 1554 1555 1556 1557 1558 1559 1560 1561 1563
1497 1501 1505 1509 1513 1516 1519 1522 1524 1526 1528 1530 1532 1534 1535 1537 1538 1540 1541 1542 1543 1544 1545 1546 1547 1548 1548 1549 1550 1551 1552 1553 1553 1554 1555 1556 1557 1558 1559 1561 1562 1563 1564
1499 1503 1506 1510 1513 1517 1520 1522 1525 1527 1529 1531 1532 1534 1536 1537 1539 1540 1541 1542 1543 1544 1545 1546 1547 1548 1549 1549 1550 1551 1552 1553 1554 1555 1556 1557 1558 1559 1560 1561 1562 1563 1565
1499 1504 1507 1511 1514 1517 1520 1523 1525 1527 1529 1531 1533 1534 1536 1537 1539 1540 1541 1542 1543 1544 1545 1546 1547 1548 1549 1549 1550 1551 1552 1553 1554 1555 1556 1557 1558 1559 1560 1561 1563 1564 1565
1500 1504 1508 1511 1515 1518 1521 1523 1525 1527 1529 1531 1533 1534 1536 1537 1539 1540 1541 1542 1543 1544 1545 1545 1546 1547 1548 1549 1550 1550 1551 1552 1553 1554 1555 1556 1557 1558 1559 1561 1562 1563 1565
1501 1504 1508 1511 1514 1518 1520 1523 1525 1527 1529 1531 1533 1534 1536 1537 1538 1539 1540 1541 1542 1543 1543 1544 1545 1546 1547 1547 1548 1549 1550 1551 1551 1552 1553 1554 1556 1557 1558 1559 1561 1562 1564
1501 1504 1507 1511 1514 1517 1520 1523 1525 1527 1529 1530 1532 1533 1535 1536 1537 1538 1539 1539 1540 1541 1542 1542 1543 1544 1545 1545 1546 1547 1548 1549 1549 1550 1551 1552 1554 1555 1556 1558 1559 1561 1562
1500 1504 1507 1510 1513 1517 1520 1522 1524 1526 1527 1529 1531 1532 1533 1534 1535 1536 1537 1538 1538 1539 1539 1540 1541 1542 1542 1543 1544 1545 1545 1546 1547 1548 1548 1550 1551 1552 1554 1555 1557 1558 1560
1498 1502 1506 1510 1513 1516 1519 1521 1523 1525 1526 1528 1529 1531 1532 1533 1534 1534 1535 1536 1536 1537 1537 1538 1538 1539 1539 1540 1541 1542 1542 1543 1544 1544 1545 1547 1548 1549 1550 1552 1554 1556 1557
1498 1502 1505 1509 1512 1515 1518 1521 1522 1524 1525 1527 1528 1529 1530 1531 1532 1532 1533 1533 1534 1534 1535 1535 1535 1536 1537 1537 1538 1538 1539 1539 1540 1541 1542 1543 1544 1546 1547 1548 1550 1552 1554
1499 1502 1505 1508 1511 1514 1516 1519 1521 1522 1523 1525 1526 1527 1528 1528 1529 1530 1530 1531 1531 1531 1532 1532 1532 1533 1533 1534 1534 1535 1535 1536 1536 1537 1538 1539 1541 1542 1543 1544 1546 1548 1550
1500 1503 1505 1508 1511 1513 1515 1517 1519 1520 1521 1522 1523 1524 1525 1526 1526 1527 1527 1527 1528 1528 1528 1529 1529 1529 1530 1530 1531 1531 1532 1532 1533 1534 1535 1536 1537 1538 1539 1541 1542 1544 1546
1500 1502 1505 1506 1509 1512 1513 1514 1516 1517 1518 1519 1519 1521 1522 1523 1524 1524 1524 1524 1524 1524 1525 1525 1525 1526 1526 1526 1527 1527 1528 1528 1529 1529 1530 1532 1533 1534 1535 1537 1538 1540 1542
1500 1502 1503 1505 1506 1508 1510 1511 1512 1513 1514 1515 1515 1516 1517 1519 1520 1521 1521 1521 1521 1521 1521 1521 1521 1522 1522 1522 1522 1523 1523 1524 1524 1525 1526 1527 1528 1529 1531 1532 1534 1535 1537
1499 1501 1503 1503 1504 1504 1505 1505 1506 1507 1507 1509 1510 1511 1513 1515 1516 1518 1517 1517 1517 1517 1517 1517 1518 1518 1518 1518 1518 1518 1518 1519 1520 1520 1521 1522 1523 1524 1526 1527 1529 1530 1532
1498 1499 1501 1501 1501 1501 1501 1500 1498 1499 1501 1503 1505 1507 1509 1511 1512 1514 1513 1513 1513 1513 1513 1513 1514 1514 1514 1514 1514 1514 1514 1514 1515 1515 1516 1517 1518 1519 1520 1522 1523 1525 1526
1497 1498 1499 1499 1497 1496 1496 1494 1491 1492 1495 1498 1499 1502 1505 1507 1509 1510 1510 1509 1509 1509 1509 1510 1510 1510 1511 1511 1511 1510 1509 1509 1510 1510 1511 1512 1513 1514 1515 1516 1517 1519 1521
1497 1497 1496 1497 1494 1493 1492 1491 1490 1490 1492 1495 1497 1499 1501 1503 1505 1506 1506 1507 1506 1506 1506 1506 1507 1507 1508 1508 1508 1507 1506 1505 1505 1506 1507 1508 1509 1510 1510 1511 1512 1513 1515
1497 1497 1495 1494 1491 1490 1490 1489 1490 1490 1492 1494 1495 1497 1498 1500 1501 1502 1503 1503 1503 1503 1503 1503 1504 1505 1505 1505 1505 1504 1503 1504 1503 1504 1504 1505 1505 1506 1507 1507 1508 1509 1510
1497 1497 1495 1494 1493 1492 1490 1490 1490 1490 1491 1492 1493 1493 1495 1497 1498 1499 1500 1501 1501 1501 1501 1501 1502 1502 1502 1503 1503 1503 1502 1501 1501 1502 1502 1502 1502 1503 1503 1503 1504 1504 1505
1498 1497 1497 1496 1495 1493 1491 1490 1490 1489 1489 1490 1489 1490 1492 1493 1494 1495 1497 1497 1498 1498 1498 1499 1499 1500 1500 1500 1500 1500 1501 1500 1500 1499 1500 1500 1500 1499 1500 1500 1500 1500 1501
1499 1498 1498 1497 1495 1494 1492 1492 1490 1489 1488 1488 1488 1488 1489 1489 1490 1491 1492 1493 1493 1494 1494 1495 1495 1496 1497 1497 1497 1497 1497 1497 1497 1497 1496 1496 1496 1496 1496 1496 1496 1496 1497
1501 1499 1498 1497 1495 1493 1492 1491 1490 1489 1487 1486 1485 1485 1485 1485 1486 1486 1487 1488 1488 1489 1489 1490 1492 1492 1493 1494 1494 1494 1494 1494 1494 1494 1494 1493 1492 1493 1493 1492 1492 1493 1493